Regional Weather Roundup
Issued by NWS Kansas City/Pleasant Hill, MO

Home | Current Version | Previous Version | Graphics & Text | Print | Product List | Glossary Off
Versions: 1 2 3 4 5 6 7 8 9 10 11 12 13 14 15 16 17 18 19 20 21 22 23 24 25 26 27

000
ASUS43 KEAX 262010
RWREAX

WEATHER ROUNDUP FOR EASTERN KANSAS AND NORTHWEST MISSOURI
NATIONAL WEATHER SERVICE KANSAS CITY/PLEASANT HILL MO
200 PM CST SUN FEB 26 2017

KSZ040-057-103>105-MOZ028-029-037-043-262100-
...KANSAS CITY METROPOLITAN AREA...

CITY           SKY/WX    TMP DP  RH WIND       PRES   REMARKS
K.C. INTL      MOSUNNY   51  25  36 VRB6      29.95F
K.C. DOWNTOWN  MOSUNNY   52  25  35 S10       29.96F
LEES SUMMIT    CLOUDY    49  25  39 S9G20     29.98F
OLATHE - IXD   MOSUNNY   49  23  36 S9        29.96F
OLATHE - OJC   MOSUNNY   47  24  40 S12       29.96F
LAWRENCE       MOSUNNY   52  24  33 S10       29.95F

$$

MOZ001>008-011>017-020>025-030>033-038>040-044>046-053-054-262100-
...NORTHERN AND CENTRAL MISSOURI...

CITY           SKY/WX    TMP DP  RH WIND       PRES   REMARKS
ST. JOSEPH     PTSUNNY   52  27  38 S12G20    29.94F
MOSBY          CLOUDY    48  21  34 S9        29.98F
WARRENSBURG    CLOUDY    46  23  39 S10G16    30.00F
WHITEMAN AFB   CLOUDY    47  21  34 SW16      29.99F
CLINTON        CLOUDY    43  36  75 S13       30.03F
SEDALIA        CLOUDY    48  20  32 S12       30.02F
WARSAW         NOT AVBL
CHILLICOTHE      N/A     50  30  46 SW8G18    29.97F
KIRKSVILLE     CLOUDY    49  31  49 SW15G28   29.97F

$$

MOZ041-047>049-056>058-063>065-088>090-097-262100-
...EASTERN AND SOUTHERN MISSOURI...

CITY           SKY/WX    TMP DP  RH WIND       PRES   REMARKS
ST. LOUIS INTL NOT AVBL
SPIRIT OF STL  CLOUDY    48  17  29 S9        30.07F
COLUMBIA       CLOUDY    47  19  33 S12       30.03F
JEFFERSON CITY CLOUDY    48  20  32 SW12      30.04F
ROLLA          CLOUDY    43  29  57 SW18G24   30.04F WCI  35
OSAGE BEACH    LGT RAIN  41  36  82 SW12      30.07R WCI  34
SPRINGFIELD    CLOUDY    37  34  89 SE9       30.01F WCI  30
BRANSON        CLOUDY    46  25  42 E9        30.01F
JOPLIN         CLOUDY    42  38  85 E12       29.98F
WEST PLAINS    CLOUDY    48  21  34 S9        30.07F

$$

IAZ060-094-KSZ022-034>040-054-083-096-NEZ052-066-093-262100-
...KANSAS...SOUTHEAST NEBRASKA AND IOWA...

CITY           SKY/WX    TMP DP  RH WIND       PRES   REMARKS
TOPEKA         SUNNY     52  24  33 S12G17    29.93F
MANHATTAN      SUNNY     51  24  34 S5        29.92F
EMPORIA        SUNNY     51  25  36 SW9       29.92F
CHANUTE        PTSUNNY   51  30  44 S15       29.95F
WICHITA        MOSUNNY   51  25  36 VRB3      29.91F
OMAHA          MOSUNNY   43  22  43 NW7       29.94F
LINCOLN        SUNNY     43  22  43 SW8       29.95F
FALLS CITY     MOSUNNY   52  23  32 W14G22    29.91F
LAMONI         CLOUDY    51  26  37 W17G28    29.91F
DES MOINES     MOSUNNY   48  25  40 W17G28    29.92R

$$





USA.gov is the U.S. government's official web portal to all federal, state and local government web resources and services.